Weather History for Paris, IL

Change the Weather History Date:

Sunday, February 16, 2014

  Actual Average (KHUF) Record (KHUF)
Temperature  
Mean Temperature 14 °F 32 °F  
Max Temperature 27 °F 41 °F 69 °F (1976)
Min Temperature 2 °F 24 °F -4 °F (1958)
Degree Days  
Heating Degree Days 50 32  
Month to date heating degree days 549  
Since 1 July heating degree days 3799  
Cooling Degree Days 0 0  
Month to date cooling degree days 0  
Year to date cooling degree days 0  
Moisture  
Dew Point 16 °F    
Average Humidity 84    
Maximum Humidity 93    
Minimum Humidity 74    
Precipitation  
Precipitation 0.00 in 0.07 in 0.91 in (1990)
Month to date precipitation 1.16  
Year to date precipitation 3.52  
Sea Level Pressure  
Sea Level Pressure 30.15 in    
Wind  
Wind Speed 8 mph (WNW)    
Max Wind Speed 14 mph    
Max Gust Speed 17 mph    
Visibility 8 miles    
Events Fog    
T = Trace of Precipitation, MM = Missing Value Source: NWS Daily Summary

Daily Weather History Graph

Daily Weather History Graph

Search for Another Location

Airport:

Trip Planner

Search our weather history database for the weather conditions in past years. The results will help you decide how hot, cold, wet, or windy it might be!

Date:

Astronomy

Feb. 16, 2014 Rise Set
Actual Time 6:41 AM CST 5:28 PM CST
Civil Twilight 6:14 AM CST 5:55 PM CST
Nautical Twilight 5:42 AM CST 6:27 PM CST
Astronomical Twilight 5:11 AM CST 6:58 PM CST
Moon 7:24 PM CST (2/16) 7:11 AM CST (2/16)
Length of Visible Light 11h 41m
Length of Day
10h 46m
Full, 97% of the Moon is Illuminated
Feb 16
Full
Feb 22
Last Quarter
Mar 1
New
Mar 8
First Quarter
Mar 16
Full

Hourly Weather History & Observations

Time (CST) Temp. Windchill Dew Point Humidity Pressure Visibility Wind Dir Wind Speed Gust Speed Precip Events Conditions
12:15 AM 25.2 °F 14.4 °F 20.8 °F 84% 29.99 in 10.0 mi SSW 11.5 mph - N/A   Overcast
12:35 AM 25.2 °F 15.7 °F 21.0 °F 84% 29.98 in 10.0 mi SSW 9.2 mph - N/A   Overcast
12:55 AM 25.3 °F 14.7 °F 21.0 °F 84% 29.98 in 10.0 mi SSW 11.5 mph - N/A   Overcast
1:15 AM 25.5 °F 14.3 °F 21.2 °F 84% 29.97 in 10.0 mi SW 12.7 mph - N/A   Overcast
1:35 AM 25.5 °F 14.9 °F 21.2 °F 84% 29.97 in 10.0 mi SW 11.5 mph - N/A   Overcast
1:55 AM 25.5 °F 15.5 °F 21.2 °F 84% 29.97 in 10.0 mi SW 10.4 mph - N/A   Overcast
2:15 AM 25.5 °F 16.9 °F 21.2 °F 84% 29.96 in 10.0 mi SW 8.1 mph - N/A   Overcast
2:35 AM 25.5 °F 16.9 °F 21.4 °F 84% 29.95 in 10.0 mi SW 8.1 mph - N/A   Overcast
2:55 AM 25.7 °F 18.0 °F 21.2 °F 83% 29.96 in 10.0 mi SW 6.9 mph - N/A   Overcast
3:15 AM 25.7 °F 18.0 °F 21.6 °F 84% 29.96 in 10.0 mi SW 6.9 mph - N/A   Overcast
3:35 AM 25.7 °F 16.4 °F 21.6 °F 84% 29.97 in 10.0 mi SW 9.2 mph - N/A   Overcast
3:55 AM 25.7 °F 18.0 °F 21.9 °F 86% 29.97 in 10.0 mi SW 6.9 mph - N/A   Overcast
4:15 AM 26.1 °F 19.4 °F 22.1 °F 85% 29.97 in 10.0 mi WSW 5.8 mph - N/A   Overcast
4:35 AM 26.1 °F 18.4 °F 21.9 °F 84% 29.98 in 10.0 mi WSW 6.9 mph - N/A   Overcast
4:55 AM 26.1 °F 19.4 °F 22.1 °F 85% 29.98 in 10.0 mi WSW 5.8 mph - N/A   Overcast
5:15 AM 26.4 °F 20.9 °F 22.1 °F 84% 29.99 in 10.0 mi West 4.6 mph - N/A   Overcast
5:35 AM 26.2 °F 18.6 °F 22.5 °F 86% 29.99 in 10.0 mi West 6.9 mph - N/A   Overcast
5:55 AM 27.1 °F 17.5 °F 22.6 °F 83% 30.00 in 10.0 mi West 10.4 mph - N/A   Overcast
6:15 AM 27.1 °F 16.9 °F 22.6 °F 83% 30.02 in 10.0 mi WNW 11.5 mph - N/A   Overcast
6:35 AM 26.6 °F 16.2 °F 22.6 °F 85% 30.03 in 10.0 mi WNW 11.5 mph 17.3 mph N/A   Overcast
6:55 AM 26.2 °F 15.8 °F 21.9 °F 84% 30.04 in 10.0 mi NW 11.5 mph - N/A   Overcast
7:15 AM 25.5 °F 14.9 °F 20.5 °F 81% 30.05 in 10.0 mi NNW 11.5 mph 17.3 mph N/A   Overcast
7:35 AM 24.4 °F 13.5 °F 19.4 °F 81% 30.06 in 10.0 mi NNW 11.5 mph - N/A   Overcast
7:55 AM 23.5 °F 11.3 °F 18.3 °F 80% 30.08 in 10.0 mi NW 13.8 mph - N/A   Overcast
8:15 AM 22.8 °F 10.4 °F 18.0 °F 82% 30.10 in 10.0 mi NW 13.8 mph - N/A   Overcast
8:35 AM 22.1 °F 10.6 °F 17.2 °F 82% 30.12 in 10.0 mi NW 11.5 mph - N/A   Overcast
8:55 AM 21.7 °F 10.8 °F 16.7 °F 81% 30.12 in 10.0 mi NNW 10.4 mph - N/A   Overcast
9:15 AM 21.2 °F 10.9 °F 16.5 °F 82% 30.13 in 10.0 mi NNW 9.2 mph 17.3 mph N/A   Overcast
9:35 AM 21.7 °F 12.3 °F 16.5 °F 80% 30.14 in 7.0 mi NNW 8.1 mph - N/A   Overcast
9:55 AM 22.1 °F 11.3 °F 16.7 °F 80% 30.15 in 10.0 mi NNW 10.4 mph - N/A   Overcast
10:15 AM 23.4 °F 11.1 °F 17.4 °F 78% 30.15 in 7.0 mi NNW 13.8 mph - N/A   Overcast
10:35 AM 23.0 °F 12.4 °F 17.2 °F 79% 30.17 in 10.0 mi NNW 10.4 mph - N/A   Mostly Cloudy
10:55 AM 23.7 °F 14.7 °F 17.4 °F 77% 30.18 in 10.0 mi NNW 8.1 mph - N/A   Mostly Cloudy
11:15 AM 24.3 °F 14.6 °F 17.6 °F 76% 30.19 in 10.0 mi NW 9.2 mph - N/A   Mostly Cloudy
11:35 AM 24.1 °F 14.4 °F 18.0 °F 77% 30.19 in 7.0 mi NNW 9.2 mph - N/A   Scattered Clouds
11:55 AM 25.2 °F 15.7 °F 17.8 °F 74% 30.19 in 10.0 mi NW 9.2 mph - N/A   Scattered Clouds
12:15 PM 23.5 °F 14.5 °F 17.6 °F 78% 30.20 in 10.0 mi NNW 8.1 mph - N/A   Mostly Cloudy
12:35 PM 24.3 °F 13.9 °F 18.1 °F 77% 30.19 in 7.0 mi NNW 10.4 mph - N/A   Overcast
12:55 PM 24.1 °F 16.0 °F 17.6 °F 76% 30.19 in 10.0 mi NW 6.9 mph - N/A   Mostly Cloudy
1:15 PM 24.3 °F 13.3 °F 17.8 °F 76% 30.20 in 7.0 mi WNW 11.5 mph - N/A   Scattered Clouds
1:35 PM 23.5 °F 11.8 °F 17.4 °F 77% 30.21 in 7.0 mi West 12.7 mph - N/A   Scattered Clouds
1:55 PM 23.0 °F 12.4 °F 17.2 °F 79% 30.22 in 7.0 mi WNW 10.4 mph - N/A   Scattered Clouds
2:15 PM 22.8 °F 12.9 °F 17.1 °F 79% 30.22 in 10.0 mi WNW 9.2 mph - N/A   Scattered Clouds
2:35 PM 22.6 °F 11.9 °F 16.7 °F 78% 30.23 in 7.0 mi WNW 10.4 mph - N/A   Scattered Clouds
2:55 PM 21.6 °F 13.0 °F 16.2 °F 80% 30.23 in 7.0 mi NW 6.9 mph - N/A   Scattered Clouds
3:15 PM 21.7 °F 13.2 °F 15.8 °F 78% 30.22 in 7.0 mi NW 6.9 mph - N/A   Clear
3:35 PM 21.2 °F 13.6 °F 15.4 °F 78% 30.23 in 10.0 mi NW 5.8 mph - N/A   Clear
3:55 PM 21.7 °F 14.3 °F 15.6 °F 77% 30.23 in 10.0 mi NNW 5.8 mph - N/A   Clear
4:15 PM 19.9 °F 13.4 °F 14.4 °F 79% 30.24 in 7.0 mi WNW 4.6 mph - N/A   Clear
4:35 PM 19.0 °F - 14.2 °F 81% 30.24 in 7.0 mi Calm Calm - N/A   Clear
4:55 PM 17.6 °F - 13.1 °F 83% 30.25 in 7.0 mi Calm Calm - N/A   Clear
5:15 PM 14.2 °F - 10.4 °F 85% 30.26 in 7.0 mi Calm Calm - N/A   Clear
5:35 PM 13.3 °F - 10.9 °F 90% 30.27 in 5.0 mi Calm Calm - N/A   Clear
5:55 PM 12.4 °F - 9.5 °F 88% 30.28 in 7.0 mi Calm Calm - N/A   Clear
6:15 PM 11.7 °F - 9.5 °F 91% 30.28 in 5.0 mi Calm Calm - N/A   Clear
6:35 PM 12.2 °F - 10.0 °F 91% 30.28 in 7.0 mi Calm Calm - N/A   Clear
6:55 PM 10.4 °F - 8.1 °F 90% 30.28 in 2.5 mi Calm Calm - N/A   Clear
7:15 PM 4.6 °F - 1.4 °F 86% 30.28 in 0.2 mi Calm Calm - N/A Fog Light Freezing Fog
7:35 PM 7.5 °F - 5.0 °F 89% 30.28 in 1.0 mi Calm Calm - N/A   Mist
7:55 PM 3.9 °F - 0.3 °F 85% 30.29 in 0.5 mi Calm Calm - N/A Fog Light Freezing Fog
8:15 PM 8.6 °F - 5.9 °F 89% 30.28 in 0.8 mi Calm Calm - N/A   Mist
8:35 PM 2.7 °F - -0.6 °F 86% 30.27 in 2.0 mi Calm Calm - N/A   Clear
8:55 PM 4.5 °F - 1.6 °F 88% 30.28 in 4.0 mi Calm Calm - N/A   Clear
9:15 PM 8.1 °F -0.5 °F 5.5 °F 89% 30.27 in 4.0 mi East 4.6 mph - N/A   Clear
9:35 PM 13.5 °F 7.5 °F 11.3 °F 91% 30.27 in 5.0 mi East 3.5 mph - N/A   Clear
9:55 PM 14.0 °F - 12.2 °F 93% 30.27 in 7.0 mi Calm Calm - N/A   Clear
10:15 PM 14.9 °F - 12.9 °F 92% 30.27 in 7.0 mi Calm Calm - N/A   Clear
10:35 PM 16.0 °F - 14.0 °F 92% 30.28 in 7.0 mi Calm Calm - N/A   Clear
10:55 PM 16.5 °F 11.0 °F 14.5 °F 92% 30.26 in 7.0 mi East 3.5 mph - N/A   Clear
11:15 PM 16.7 °F 8.3 °F 14.9 °F 93% 30.25 in 7.0 mi East 5.8 mph - N/A   Clear
11:35 PM 17.6 °F 12.3 °F 15.8 °F 93% 30.26 in 7.0 mi East 3.5 mph - N/A   Clear
11:55 PM 18.1 °F 11.3 °F 16.5 °F 93% 30.26 in 10.0 mi East 4.6 mph - N/A   Clear